This demonstration page uses our WeatherBlox Daily Observations layout. Learn more.

41.55636, -103.73856

Hourly Observations for April 14, 2015

Temp ( °F °C ) Dew Point ( °F °C ) Humidity (%) Winds ( mph kmh ) Pressure ( in mb ) Visibility ( mi km ) Precip ( " mm )
12:53 am 00:53 Clear 53 11.7 22 -5.6 30 30 SSE 16 26 30 1016 10 16.0934 0 0
1:53 am 01:53 Clear 51 10.6 22 -5.6 32 32 S 12 19 29.98 1015 10 16.0934 0 0
2:53 am 02:53 Clear 47 8.3 22 -5.6 37 37 SE 7 11 29.96 1015 10 16.0934 0 0
3:53 am 03:53 Clear 41 5 24 -4.4 51 51 ESE 7 11 29.96 1015 10 16.0934 0 0
4:53 am 04:53 Clear 39 3.9 25 -3.9 57 57 ESE 9 15 29.95 1014 10 16.0934 0 0
5:53 am 05:53 Clear 39 3.9 24 -4.4 55 55 ESE 8 13 29.96 1015 10 16.0934 0 0
6:53 am 06:53 Sunny 39 3.9 26 -3.3 60 60 ESE 9 15 29.98 1015 10 16.0934 0 0
7:53 am 07:53 Sunny 48 8.9 27 -2.8 44 44 ESE 12 19 29.97 1015 10 16.0934 0 0
8:53 am 08:53 Sunny 53 11.7 26 -3.3 35 35 ESE 13 20 29.95 1014 10 16.0934 0 0
9:53 am 09:53 Sunny 59 15 27 -2.8 29 29 SE 14 22 29.93 1014 10 16.0934 0 0
10:53 am 10:53 Sunny 66 18.9 28 -2.2 24 24 SE 18 30 29.88 1012 10 16.0934 0 0
11:53 am 11:53 Sunny 71 21.7 28 -2.2 20 20 S 21 33 29.84 1010 10 16.0934 0 0
12:53 pm 12:53 Sunny 73 22.8 29 -1.7 19 19 SSE 20 31 29.8 1009 10 16.0934 0 0
1:53 pm 13:53 Sunny 76 24.4 29 -1.7 18 18 SSE 18 30 29.75 1008 10 16.0934 0 0
2:53 pm 14:53 Sunny 77 25 28 -2.2 16 16 SSE 28 44 29.72 1006 10 16.0934 0 0
3:53 pm 15:53 Sunny 76 24.4 26 -3.3 16 16 SSE 23 37 29.7 1006 10 16.0934 0 0
4:53 pm 16:53 Sunny 76 24.4 27 -2.8 16 16 SSE 28 44 29.68 1005 10 16.0934 0 0
5:53 pm 17:53 Sunny 74 23.3 27 -2.8 17 17 SSE 24 39 29.67 1005 10 16.0934 0 0
6:53 pm 18:53 Sunny 69 20.6 27 -2.8 21 21 SE 20 31 29.69 1005 10 16.0934 0 0
7:53 pm 19:53 Clear 64 17.8 25 -3.9 23 23 ESE 17 28 29.68 1005 10 16.0934 0 0
8:53 pm 20:53 Clear 62 16.7 24 -4.4 23 23 SE 23 37 29.69 1005 10 16.0934 0 0
9:53 pm 21:53 Clear 59 15 25 -3.9 27 27 SE 21 33 29.7 1006 10 16.0934 0 0
10:53 pm 22:53 Clear 56 13.3 24 -4.4 29 29 SE 21 33 29.67 1005 10 16.0934 0 0
11:53 pm 23:53 Clear 55 12.8 26 -3.3 33 33 SE 17 28 29.65 1004 10 16.0934 0 0

Powered by AerisWeather